Location: Rockford
(42.2710°N, 89.0940°W)
Time: 21:47:23
(UTC-05:00)

SPOT 5 - Visible Passes

Search period start: 24 April 2017 00:00
Search period end: 04 May 2017 00:00
Orbit: 623 x 816 km, 98.4° (Epoch: 22 April)

Date Brightness Start Highest point End Pass type
(mag) Time Alt. Az. Time Alt. Az. Time Alt. Az.
24 Apr 4.1 21:04:10 18° ESE 21:06:18 25° ENE 21:10:05 10° NNE visible
24 Apr 3.9 22:43:24 35° WSW 22:44:12 37° W 22:48:35 10° NNW visible
25 Apr 2.8 21:52:45 45° SE 21:54:08 70° ENE 21:58:47 10° N visible
25 Apr 5.3 23:31:59 13° W 23:32:34 13° W 23:34:41 10° WNW visible
26 Apr 4.2 21:02:05 17° ESE 21:04:21 23° ENE 21:08:00 10° NNE visible
26 Apr 3.8 22:41:19 35° SW 22:42:13 39° W 22:46:36 10° NNW visible
27 Apr 2.8 21:50:39 42° SE 21:52:10 66° ENE 21:56:45 10° N visible
27 Apr 5.2 23:29:53 13° W 23:30:35 13° W 23:32:48 10° WNW visible
28 Apr 4.2 20:59:59 15° ESE 21:02:23 22° ENE 21:05:54 10° NNE visible
28 Apr 3.7 22:39:13 36° SW 22:40:14 40° W 22:44:36 10° NNW visible
29 Apr 2.8 21:48:34 39° SE 21:50:11 63° ENE 21:54:42 10° N visible
29 Apr 5.2 23:27:47 13° WSW 23:28:35 14° W 23:30:54 10° WNW visible
30 Apr 4.3 20:57:53 14° ESE 21:00:25 21° ENE 21:03:48 10° NNE visible
30 Apr 3.7 22:37:07 36° SW 22:38:14 42° W 22:42:36 10° NNW visible
01 May 2.8 21:46:27 35° SE 21:48:12 59° ENE 21:52:39 10° N visible
01 May 5.1 23:25:41 13° WSW 23:26:35 14° W 23:29:01 10° WNW visible
02 May 4.3 20:55:48 13° ESE 20:58:27 20° ENE 21:01:41 10° NNE visible
02 May 3.6 22:35:02 36° SW 22:36:16 44° W 22:40:35 10° NNW visible
03 May 2.9 21:44:22 33° SE 21:46:13 56° ENE 21:50:37 10° N visible
03 May 5.1 23:23:36 14° WSW 23:24:35 15° W 23:27:06 10° WNW visible
